Location: Clinton NY
(43.0598°N, 75.3602°W)
Time: 03:59:17
(UTC-04:00)

Iridium 11 - Visible Passes

Search period start: 28 May 2016 00:00
Search period end: 07 June 2016 00:00
Orbit: 776 x 779 km, 86.4° (Epoch: 27 May)

Date Brightness Start Highest point End Pass type
(mag) Time Alt. Az. Time Alt. Az. Time Alt. Az.
28 May 7.2 01:16:54 10° NNW 01:20:39 20° W 01:21:34 19° W visible
28 May 6.7 23:02:11 10° NNE 23:06:37 27° ENE 23:07:45 25° E visible
29 May 6.5 00:42:39 10° NNW 00:47:23 36° W 00:48:13 34° WSW visible
29 May 7.4 22:29:41 10° NE 22:32:46 16° ENE 22:34:24 14° E visible
30 May 5.6 00:08:49 10° N 00:13:59 65° W 00:14:52 55° SW visible
30 May 5.5 23:35:15 10° N 23:40:29 70° E 23:41:31 55° SE visible
31 May 7.7 01:17:50 10° NW 01:20:32 14° WNW 01:22:00 13° W visible
31 May 6.3 23:01:58 10° NNE 23:06:51 38° E 23:08:11 33° ESE visible
01 Jun 7.0 00:43:07 10° NNW 00:47:20 25° W 00:48:40 23° WSW visible
01 Jun 7.0 22:29:03 10° NNE 22:33:04 22° ENE 22:34:51 19° ESE visible
02 Jun 6.2 00:09:03 10° NNW 00:14:01 45° W 00:15:20 37° SW visible
02 Jun 7.6 21:57:04 10° NE 21:59:10 12° ENE 22:01:14 10° E visible
02 Jun 5.5 23:35:20 10° N 23:40:34 83° W 23:42:00 49° S visible
03 Jun 5.8 23:01:53 10° N 23:07:01 55° E 23:08:42 38° SE visible
04 Jun 7.5 00:43:48 10° NW 00:47:15 18° WNW 00:49:10 15° WSW visible
04 Jun 6.6 22:28:43 10° NNE 22:33:19 31° E 22:35:23 23° ESE visible
05 Jun 6.8 00:09:25 10° NNW 00:14:00 32° W 00:15:52 25° WSW visible
05 Jun 7.3 21:56:02 10° NNE 21:59:30 18° ENE 22:02:05 13° ESE visible
05 Jun 5.9 23:35:30 10° N 23:40:38 58° W 23:42:34 36° SSW visible
06 Jun 5.5 23:01:53 10° N 23:07:09 79° E 23:09:16 37° SSE visible
